Spokane, WA

10:14 PM PST on February 20, 2017 (GMT -0800)
Spokane International

Weather History for KGEG - September, 2013

Change the Weather History Date:

Friday, September 20, 2013

  Actual Average Record
Temperature  
Mean Temperature 63 °F 59 °F  
Max Temperature 79 °F 71 °F 90 °F (1939)
Min Temperature 46 °F 46 °F 32 °F (1983)
Degree Days  
Heating Degree Days 2 7  
Month to date heating degree days 30 93  
Since 1 July heating degree days 37 158  
Cooling Degree Days 0 1  
Month to date cooling degree days 108 33  
Year to date cooling degree days 709 444  
Growing Degree Days 12 (Base 50)    
Moisture  
Dew Point 42 °F    
Average Humidity 52    
Maximum Humidity 80    
Minimum Humidity 23    
Precipitation  
Precipitation 0.00 in 0.02 in 0.71 in (1945)
Month to date precipitation 0.50 0.43  
Year to date precipitation 7.97 10.54  
Snow  
Snow 0.00 in 0.00 in 0.00 in (2002)
Month to date snowfall 0.0 0.0  
Since 1 July snowfall 0.0 0.0  
Since 1 September snowfall 0.0 0.0  
Snow Depth 0.00 in    
Sea Level Pressure  
Sea Level Pressure 29.73 in    
Wind  
Wind Speed 9 mph (NE)    
Max Wind Speed 16 mph    
Max Gust Speed 21 mph    
Visibility 10 miles    
Events      
T = Trace of Precipitation, MM = Missing Value Source: NWS Daily Summary

Daily Weather History Graph

Daily Weather History Graph

Search for Another Location

Airport or City:

Trip Planner

Search our weather history database for the weather conditions in past years. The results will help you decide how hot, cold, wet, or windy it might be!

Date:

Astronomy

Sep. 20, 2013 Rise Set
Actual Time 6:34 AM PDT 6:51 PM PDT
Civil Twilight 6:03 AM PDT 7:22 PM PDT
Nautical Twilight 5:27 AM PDT 7:58 PM PDT
Astronomical Twilight 4:49 AM PDT 8:35 PM PDT
Moon 7:17 PM PDT (9/20) 8:03 AM PDT (9/20)
Length of Visible Light 13h 18m
Length of Day
12h 16m
Full, 98% of the Moon is Illuminated
Sep 20
Full
Sep 26
Last Quarter
Oct 4
New
Oct 11
First Quarter
Oct 18
Full

Hourly Weather History & Observations

Time (PDT) Temp. Dew Point Humidity Pressure Visibility Wind Dir Wind Speed Gust Speed Precip Events Conditions
12:53 AM 55.0 °F 43.0 °F 64% 29.91 in 10.0 mi ENE 10.4 mph - N/A   Mostly Cloudy
1:53 AM 53.1 °F 43.0 °F 69% 29.90 in 10.0 mi ENE 10.4 mph - N/A   Mostly Cloudy
2:53 AM 52.0 °F 43.0 °F 71% 29.88 in 10.0 mi ENE 8.1 mph - N/A   Scattered Clouds
3:53 AM 51.1 °F 43.0 °F 74% 29.88 in 10.0 mi NE 9.2 mph - N/A   Partly Cloudy
4:53 AM 48.9 °F 42.1 °F 77% 29.87 in 10.0 mi NE 6.9 mph - N/A   Partly Cloudy
5:53 AM 48.0 °F 41.0 °F 77% 29.86 in 10.0 mi NE 3.5 mph - N/A   Partly Cloudy
6:53 AM 48.0 °F 42.1 °F 80% 29.86 in 10.0 mi ENE 9.2 mph - N/A   Partly Cloudy
7:53 AM 51.1 °F 43.0 °F 74% 29.85 in 10.0 mi NE 11.5 mph - N/A   Partly Cloudy
8:53 AM 54.0 °F 43.0 °F 66% 29.83 in 10.0 mi ENE 11.5 mph - N/A   Partly Cloudy
9:53 AM 57.9 °F 44.1 °F 60% 29.81 in 10.0 mi ENE 11.5 mph 20.7 mph N/A   Partly Cloudy
10:53 AM 63.0 °F 44.1 °F 50% 29.78 in 10.0 mi NE 11.5 mph - N/A   Partly Cloudy
11:53 AM 68.0 °F 39.9 °F 36% 29.74 in 10.0 mi ENE 12.7 mph - N/A   Scattered Clouds
12:53 PM 71.1 °F 39.9 °F 32% 29.71 in 10.0 mi ENE 9.2 mph - N/A   Scattered Clouds
1:53 PM 75.0 °F 39.9 °F 28% 29.68 in 10.0 mi ENE 9.2 mph - N/A   Scattered Clouds
2:53 PM 77.0 °F 39.0 °F 25% 29.64 in 10.0 mi NE 13.8 mph - N/A   Scattered Clouds
3:53 PM 78.8 °F 37.4 °F 23% 29.61 in 10.0 mi ENE 11.5 mph - N/A   Scattered Clouds
4:53 PM 78.8 °F 39.2 °F 24% 29.59 in 10.0 mi ENE 11.5 mph - N/A   Mostly Cloudy
5:53 PM 75.9 °F 39.9 °F 27% 29.57 in 10.0 mi NE 9.2 mph - N/A   Mostly Cloudy
6:53 PM 71.1 °F 42.1 °F 35% 29.57 in 10.0 mi NNE 8.1 mph - N/A   Mostly Cloudy
7:53 PM 69.1 °F 43.0 °F 39% 29.57 in 10.0 mi NE 8.1 mph - N/A   Mostly Cloudy
8:53 PM 66.9 °F 43.0 °F 42% 29.56 in 10.0 mi ENE 6.9 mph - N/A   Mostly Cloudy
9:53 PM 64.0 °F 43.0 °F 46% 29.55 in 10.0 mi NE 5.8 mph - N/A   Mostly Cloudy
10:53 PM 64.0 °F 43.0 °F 46% 29.54 in 10.0 mi East 5.8 mph - N/A   Scattered Clouds
11:53 PM 62.1 °F 43.0 °F 50% 29.54 in 10.0 mi ENE 5.8 mph - N/A   Mostly Cloudy